Tyrone, NM

12:37 AM MDT on August 26, 2016 (GMT -0600)
Grant County

Weather History for KSVC - May, 2014

Change the Weather History Date:

Friday, May 16, 2014

  Actual Average (KDMN) Record (KDMN)
Temperature  
Mean Temperature 63 °F 69 °F  
Max Temperature 84 °F 87 °F 98 °F (1964)
Min Temperature 42 °F 51 °F 38 °F (1967)
Degree Days  
Heating Degree Days 2    
Growing Degree Days 13 (Base 50)    
Moisture  
Dew Point 12 °F    
Average Humidity 13    
Maximum Humidity 25    
Minimum Humidity 6    
Precipitation  
Precipitation 0.00 in 0.01 in 0.00 in (2016)
Month to date precipitation 0.34  
Year to date precipitation 2.32  
Sea Level Pressure  
Sea Level Pressure 30.19 in    
Wind  
Wind Speed 10 mph (NW)    
Max Wind Speed 23 mph    
Max Gust Speed 34 mph    
Visibility 10 miles    
Events      
T = Trace of Precipitation, MM = Missing Value Source: NWS Daily Summary

Daily Weather History Graph

Daily Weather History Graph

Search for Another Location

Airport or City:

Trip Planner

Search our weather history database for the weather conditions in past years. The results will help you decide how hot, cold, wet, or windy it might be!

Date:

Astronomy

May. 16, 2014 Rise Set
Actual Time 6:13 AM MDT 8:05 PM MDT
Civil Twilight 5:46 AM MDT 8:32 PM MDT
Nautical Twilight 5:13 AM MDT 9:05 PM MDT
Astronomical Twilight 4:38 AM MDT 9:40 PM MDT
Moon 10:15 PM MDT (5/16) 7:58 AM MDT (5/16)
Length of Visible Light 14h 46m
Length of Day
13h 51m
Waning Gibbous, 95% of the Moon is Illuminated
May 16
Waning Gibbous
May 21
Last Quarter
May 28
New
Jun 5
First Quarter
Jun 12
Full

Hourly Weather History & Observations

Time (MDT) Temp. Windchill Dew Point Humidity Pressure Visibility Wind Dir Wind Speed Gust Speed Precip Events Conditions
12:15 AM 50.0 °F - 8.6 °F 19% 30.27 in 10.0 mi NNE 6.9 mph - N/A   Clear
12:35 AM 48.2 °F - 6.8 °F 19% 30.26 in 10.0 mi NNE 5.8 mph - N/A   Clear
12:55 AM 50.0 °F - 8.6 °F 19% 30.27 in 10.0 mi NNE 6.9 mph - N/A   Clear
1:15 AM 53.6 °F - 8.6 °F 16% 30.26 in 10.0 mi NNE 6.9 mph - N/A   Clear
1:35 AM 50.0 °F - 8.6 °F 19% 30.26 in 10.0 mi NNE 4.6 mph - N/A   Clear
1:55 AM 48.2 °F - 6.8 °F 19% 30.26 in 10.0 mi North 8.1 mph - N/A   Clear
2:15 AM 48.2 °F - 8.6 °F 20% 30.26 in 10.0 mi North 10.4 mph - N/A   Clear
2:35 AM 50.0 °F - 8.6 °F 19% 30.25 in 10.0 mi NNE 9.2 mph - N/A   Clear
2:55 AM 50.0 °F - 8.6 °F 19% 30.25 in 10.0 mi NNE 9.2 mph - N/A   Clear
3:15 AM 48.2 °F - 8.6 °F 20% 30.25 in 10.0 mi North 8.1 mph - N/A   Clear
3:35 AM 46.4 °F 42.9 °F 8.6 °F 22% 30.25 in 10.0 mi NNW 6.9 mph - N/A   Clear
3:55 AM 46.4 °F 42.4 °F 8.6 °F 22% 30.25 in 10.0 mi North 8.1 mph - N/A   Clear
4:15 AM 46.4 °F 41.5 °F 8.6 °F 22% 30.25 in 10.0 mi North 10.4 mph - N/A   Clear
4:35 AM 48.2 °F - 10.4 °F 22% 30.24 in 10.0 mi North 11.5 mph - N/A   Clear
4:55 AM 44.6 °F 39.7 °F 8.6 °F 23% 30.24 in 10.0 mi North 9.2 mph - N/A   Clear
5:15 AM 42.8 °F 38.0 °F 8.6 °F 25% 30.24 in 10.0 mi North 8.1 mph - N/A   Clear
5:35 AM 42.8 °F 37.0 °F 8.6 °F 25% 30.24 in 10.0 mi North 10.4 mph - N/A   Clear
5:55 AM 46.4 °F 41.5 °F 10.4 °F 23% 30.24 in 10.0 mi North 10.4 mph - N/A   Clear
6:15 AM 46.4 °F 40.4 °F 10.4 °F 23% 30.24 in 10.0 mi North 13.8 mph - N/A   Clear
6:35 AM 48.2 °F - 10.4 °F 22% 30.24 in 10.0 mi North 11.5 mph - N/A   Clear
6:55 AM 50.0 °F - 12.2 °F 22% 30.25 in 10.0 mi North 11.5 mph - N/A   Clear
7:15 AM 53.6 °F - 14.0 °F 21% 30.25 in 10.0 mi North 11.5 mph - N/A   Clear
7:35 AM 57.2 °F - 14.0 °F 18% 30.25 in 10.0 mi North 8.1 mph - N/A   Clear
7:55 AM 62.6 °F - 15.8 °F 16% 30.26 in 10.0 mi North 4.6 mph - N/A   Clear
8:15 AM 68.0 °F - 14.0 °F 12% 30.26 in 10.0 mi North 4.6 mph - N/A   Clear
8:35 AM 69.8 °F - 12.2 °F 11% 30.26 in 10.0 mi WNW 5.8 mph - N/A   Clear
8:55 AM 71.6 °F - 14.0 °F 11% 30.26 in 10.0 mi WNW 6.9 mph - N/A   Clear
9:15 AM 71.6 °F - 14.0 °F 11% 30.27 in 10.0 mi NNW 5.8 mph - N/A   Clear
9:55 AM 73.4 °F - 14.0 °F 10% 30.27 in 10.0 mi West 8.1 mph - N/A   Clear
10:15 AM 75.2 °F - 14.0 °F 10% 30.27 in 10.0 mi WNW 6.9 mph - N/A   Clear
10:35 AM 75.2 °F - 14.0 °F 10% 30.26 in 10.0 mi WNW 13.8 mph - N/A   Clear
10:55 AM 77.0 °F - 14.0 °F 9% 30.25 in 10.0 mi West 13.8 mph 18.4 mph N/A   Clear
11:15 AM 77.0 °F - 15.8 °F 10% 30.24 in 10.0 mi WNW 12.7 mph 19.6 mph N/A   Clear
11:35 AM 78.8 °F - 15.8 °F 9% 30.24 in 10.0 mi West 13.8 mph 21.9 mph N/A   Clear
11:55 AM 80.6 °F - 15.8 °F 9% 30.23 in 10.0 mi West 16.1 mph 23.0 mph N/A   Clear
12:15 PM 78.8 °F - 15.8 °F 9% 30.22 in 10.0 mi West 13.8 mph 23.0 mph N/A   Clear
12:35 PM 80.6 °F - 15.8 °F 9% 30.22 in 10.0 mi NNW 6.9 mph 17.3 mph N/A   Clear
12:55 PM 80.6 °F - 14.0 °F 8% 30.21 in 10.0 mi West 10.4 mph 16.1 mph N/A   Clear
1:15 PM 80.6 °F - 12.2 °F 8% 30.20 in 10.0 mi NW 13.8 mph 18.4 mph N/A   Clear
1:35 PM 82.4 °F - 12.2 °F 7% 30.18 in 10.0 mi WNW 18.4 mph 27.6 mph N/A   Clear
2:15 PM 80.6 °F - 10.4 °F 7% 30.17 in 10.0 mi NW 12.7 mph 19.6 mph N/A   Clear
2:35 PM 82.4 °F - 12.2 °F 7% 30.16 in 10.0 mi WNW 10.4 mph 18.4 mph N/A   Clear
2:55 PM 84.2 °F - 12.2 °F 7% 30.15 in 10.0 mi NW 18.4 mph 23.0 mph N/A   Clear
3:15 PM 82.4 °F - 12.2 °F 7% 30.14 in 10.0 mi West 12.7 mph 25.3 mph N/A   Clear
3:55 PM 84.2 °F - 14.0 °F 7% 30.13 in 10.0 mi West 17.3 mph 24.2 mph N/A   Clear
4:15 PM 82.4 °F - 14.0 °F 8% 30.12 in 10.0 mi WNW 17.3 mph 29.9 mph N/A   Clear
4:35 PM 84.2 °F - 14.0 °F 7% 30.11 in 10.0 mi West 15.0 mph 28.8 mph N/A   Clear
4:55 PM 82.4 °F - 14.0 °F 8% 30.10 in 10.0 mi West 20.7 mph 33.4 mph N/A   Clear
5:15 PM 84.2 °F - 14.0 °F 7% 30.10 in 10.0 mi West 19.6 mph 31.1 mph N/A   Clear
5:35 PM 84.2 °F - 10.4 °F 6% 30.09 in 10.0 mi WNW 23.0 mph 27.6 mph N/A   Clear
5:55 PM 82.4 °F - 10.4 °F 7% 30.09 in 10.0 mi West 18.4 mph 29.9 mph N/A   Clear
6:15 PM 82.4 °F - 12.2 °F 7% 30.08 in 10.0 mi WNW 23.0 mph 32.2 mph N/A   Clear
6:35 PM 82.4 °F - 12.2 °F 7% 30.08 in 10.0 mi West 21.9 mph 34.5 mph N/A   Clear
6:55 PM 80.6 °F - 12.2 °F 8% 30.08 in 10.0 mi West 23.0 mph 33.4 mph N/A   Clear
7:15 PM 80.6 °F - 12.2 °F 8% 30.08 in 10.0 mi West 18.4 mph 32.2 mph N/A   Clear
7:55 PM 77.0 °F - 14.0 °F 9% 30.09 in 10.0 mi WNW 15.0 mph 20.7 mph N/A   Clear
8:15 PM 75.2 °F - 12.2 °F 9% 30.09 in 10.0 mi WNW 12.7 mph - N/A   Clear
8:35 PM 73.4 °F - 12.2 °F 10% 30.09 in 10.0 mi WNW 9.2 mph - N/A   Clear
8:55 PM 68.0 °F - 10.4 °F 11% 30.10 in 10.0 mi NW 10.4 mph - N/A   Clear
9:15 PM 66.2 °F - 10.4 °F 11% 30.10 in 10.0 mi NW 11.5 mph - N/A   Clear
9:35 PM 66.2 °F - 10.4 °F 11% 30.10 in 10.0 mi NW 12.7 mph - N/A   Clear
9:55 PM 66.2 °F - 10.4 °F 11% 30.11 in 10.0 mi NW 12.7 mph - N/A   Clear
10:15 PM 62.6 °F - 10.4 °F 13% 30.11 in 10.0 mi NW 12.7 mph - N/A   Clear
10:35 PM 62.6 °F - 10.4 °F 13% 30.11 in 10.0 mi NW 11.5 mph - N/A   Clear
10:55 PM 64.4 °F - 10.4 °F 12% 30.12 in 10.0 mi NW 11.5 mph - N/A   Clear
11:15 PM 59.0 °F - 10.4 °F 15% 30.12 in 10.0 mi NNW 8.1 mph - N/A   Clear
11:35 PM 57.2 °F - 8.6 °F 14% 30.12 in 10.0 mi NW 10.4 mph - N/A   Clear
11:55 PM 57.2 °F - 8.6 °F 14% 30.12 in 10.0 mi NNW 8.1 mph - N/A   Clear